Location: Ammerl�gen
(47.2167°N, 9.6000°E)
Time: 13:20:29
(UTC+00:00)

RS-15 - Pass Details

Date: 10 December 2021
Orbit: 1882 x 2162 km, 64.8° (Epoch: 28 January)

Event Time Altitude Azimuth Distance (km) Brightness Sun altitude
Exits shadow 05:39:36 14° 297° (WNW) 4,203 9.1 -12.5°
Maximum altitude 05:48:37 34° 355° (N) 3,102 8.9 -11.1°
Drops below altitude 10° 05:59:32 10° 57° (ENE) 4,686 10.5 -9.4°
Sets 06:03:40 0° 67° (ENE) 5,693 11.2 -8.8°
